Location: Bremen
(53.0793°N, 8.8017°E)
Time: 07:16:21
(UTC+02:00)

Transit 2A Rocket - Visible Passes

Search period start: 19 June 2024 00:00
Search period end: 29 June 2024 00:00
Orbit: 583 x 910 km, 66.7° (Epoch: 18 June)

Date Brightness Start Highest point End Pass type
(mag) Time Alt. Az. Time Alt. Az. Time Alt. Az.
19 Jun 6.4 00:21:01 10° WSW 00:26:07 43° NW 00:31:39 10° NE visible
19 Jun 7.8 02:05:42 10° WNW 02:10:06 23° N 02:14:43 10° NE visible
19 Jun 7.9 03:49:53 10° NW 03:54:33 24° NNE 03:59:22 10° ENE visible
19 Jun 5.8 23:36:36 10° WSW 23:41:49 59° NW 23:47:33 10° NE visible
20 Jun 7.6 01:20:55 10° WNW 01:25:30 26° NNW 01:30:22 10° NE visible
20 Jun 8.0 03:05:29 10° NW 03:09:56 22° N 03:14:32 10° ENE visible
20 Jun 5.2 22:52:23 10° SW 22:57:38 85° NW 23:03:26 10° NE visible
21 Jun 7.3 00:36:10 10° W 00:40:59 30° NNW 00:46:08 10° NE visible
21 Jun 8.0 02:20:57 10° NW 02:25:17 21° N 02:29:48 10° NE visible
21 Jun 7.6 04:04:27 10° NW 04:09:37 30° NNE 04:14:55 10° E visible
21 Jun 6.8 23:51:29 10° W 23:56:32 38° NNW 00:01:59 10° NE visible
22 Jun 7.9 01:36:16 10° WNW 01:40:38 22° N 01:45:13 10° NE visible
22 Jun 7.9 03:20:14 10° NW 03:25:05 26° NNE 03:30:03 10° ENE visible
22 Jun 6.2 23:06:58 10° WSW 23:12:10 51° NW 23:17:52 10° NE visible
23 Jun 7.8 00:51:29 10° WNW 00:56:01 24° NNW 01:00:47 10° NE visible
23 Jun 8.0 02:35:54 10° NW 02:40:29 23° N 02:45:12 10° ENE visible
24 Jun 7.5 00:06:42 10° W 00:11:27 28° NNW 00:16:30 10° NE visible
24 Jun 8.1 01:51:25 10° NW 01:55:50 22° N 02:00:23 10° NE visible
24 Jun 7.4 03:34:45 10° NW 03:40:06 33° NNE 03:45:33 10° E visible
24 Jun 7.1 23:21:59 10° W 23:26:57 34° NNW 23:32:19 10° NE visible
25 Jun 8.0 01:06:48 10° NW 01:11:11 22° N 01:15:44 10° NE visible
25 Jun 7.7 02:50:34 10° NW 02:55:35 27° NNE 03:00:43 10° ENE visible
25 Jun 6.6 22:37:23 10° WSW 22:42:33 44° NW 22:48:10 10° NE visible
26 Jun 7.9 00:22:04 10° WNW 00:26:32 23° NNW 00:31:14 10° NE visible
26 Jun 7.9 02:06:17 10° NW 02:11:00 24° NNE 02:15:50 10° ENE visible
26 Jun 6.6 03:49:08 10° NW 03:54:55 47° NE 04:00:48 10° ESE visible
26 Jun 7.7 23:37:16 10° WNW 23:41:56 26° NNW 23:46:53 10° NE visible
27 Jun 8.0 01:21:53 10° NW 01:26:22 22° N 01:31:00 10° ENE visible
27 Jun 7.1 03:05:01 10° NW 03:10:32 37° NNE 03:16:09 10° E visible
27 Jun 7.4 22:52:29 10° W 22:57:24 31° NNW 23:02:39 10° NE visible
28 Jun 8.0 00:37:19 10° NW 00:41:42 22° N 00:46:16 10° NE visible
28 Jun 7.5 02:20:53 10° NW 02:26:03 30° NNE 02:31:21 10° E visible
28 Jun 5.7 04:03:29 10° NW 04:09:32 74° NE 04:15:37 10° SE visible
